Terminal Aerodrome Forecast
Issued by NWS Rapid City, SD

Home | Current Version | Previous Version | Text Only | Print | Product List | Glossary On
Versions: 1 2 3 4 5 6 7 8 9 10 11 12 13 14 15 16 17 18 19 20 21
000
FTUS43 KUNR 221100
TAFRAP
TAF
KRAP 221132Z 2212/2312 28008KT P6SM SCT200
     FM230400 32022G35KT P6SM BKN050=

USA.gov is the U.S. government's official web portal to all federal, state and local government web resources and services.